Погода в Пезе

Швейцария     46°59′11″N   6°53′15″E
темп.,
°C
ветер,
м/с
пор.,
м/с
влажн.,
%
обл.,
%
осадки,
мм/ч
давл.,
гПа
погр.,
м
15 апреля, чт
чт1523:000ссв378034 0.0 1027254
02:00−2св37846 0.0 1027239
05:00−3св38818 0.0 1026260
08:00−1св49734 0.0 1026422
11:00+4всв684840 0.0 10251639
14:00+7св663696 0.0 10232531
17:00+6ссв784510 0.1 10221915
20:00+3с611619 0.1 1022653
16 апреля, пт
пт1623:00+1св4116956 0.0 1023513
02:000св5137092 0.0 1023803
05:000св5126999 0.0 1022746
08:00−1св5127235 0.0 1023693
11:00+4всв79548 0.0 10211134
14:00+8всв674242 0.0 10191767
17:00+8ссв784644 0.0 10181746
20:00+3с511717 0.0 1020480
17 апреля, сб
сб1723:000ссв49897 0.0 1022306
02:000св5128427 0.0 1021623
05:00−1св499059 0.0 1021383
08:00+1всв5108099 0.0 1021784
11:00+2всв6107798 0.0 1021839
14:00+7всв685520 0.0 10191344
17:00+8св675568 0.0 10181614
20:00+4св477978 0.1 1020498
18 апреля, вс
вс1823:00+1ссв359116 0.0 1021166
02:00+2св368974 0.1 1021381
05:00+3св3793100 0.1 1021544
08:00+3св369499 0.2 1021413
11:00+5всв4676100 0.1 10211062
14:00+7всв4560100 0.2 10211441
17:00+7всв356378 0.1 10201155
20:00+6св357788 0.2 1021327
19 апреля, пн
пн1923:00+2св369414 0.1 1023167
02:00+1ссв379412 0.1 1022187
05:00+2св369084 0.0 1022248
08:00+3всв379492 0.1 1021456
11:00+7всв576691 0.1 10201312
14:00+9всв565452 0.1 10181497
17:00+9всв465450 0.0 10171471
20:00+6св35705 0.0 1017235